Regional Weather Roundup
Issued by NWS

Home | Current Version | Previous Version | Text Only | Print | Product List | Glossary Off
Versions: 1 2 3 4 5 6 7 8 9 10 11 12 13 14 15 16 17 18 19 20 21 22 23 24 25 26 27 28 29 30 31 32 33 34 35 36 37 38 39 40 41 42 43 44 45 46 47 48 49 50

000
ASUS43 KMPX 201610
RWRMN
WEATHER ROUNDUP FOR MINNESOTA
NATIONAL WEATHER SERVICE TWIN CITIES/CHANHASSEN MN
1000 AM CST TUE FEB 20 2018


NOTE: "FAIR" INDICATES FEW OR NO CLOUDS BELOW 12,000 FEET WITH NO
SIGNIFICANT WEATHER AND/OR OBSTRUCTIONS TO VISIBILITY. N/A MEANS
CURRENT SKY AND/OR WEATHER CONDITIONS ARE NOT AVAILABLE.

MNZ060>063-068>070-201700-
   Twin Cities Metro

CITY           SKY/WX    TMP DP  RH WIND       PRES   REMARKS
TWIN CITIES    FLURRIES  18  17  96 NW8       29.89F WCI   8
ST PAUL        CLOUDY    20  17  88 NW10      29.90S WCI   9
CRYSTAL        CLOUDY    16  12  84 NW9       29.88F WCI   4
BLAINE         FRZ DRZL  18  16  93 NW10      29.89R WCI   6
LAKEVILLE      CLOUDY    19  18  93 NW6       29.88F WCI  11
EDEN PRAIRIE   CLOUDY    18  13  80 N8        29.88F WCI   8
SOUTH ST PAUL  CLOUDY    21  18  87 NW6       29.89S FOG     WCI  13
LAKE ELMO      CLOUDY    21  19  93 NW6       29.88S FOG     WCI  14
$$
MNZ001>005-007-008-013>017-022>024-027-028-201700-
   Northwest Minnesota

CITY           SKY/WX    TMP DP  RH WIND       PRES   REMARKS
BEMIDJI        LGT SNOW   5   0  79 NW9       29.95R WCI  -9
HALLOCK        LGT SNOW   5   1  85 NW9       30.10F WCI  -9
ROSEAU         LGT SNOW   5   0  78 N10       30.02F WCI -10
WARROAD        LGT SNOW   3   0  85 NW6       30.01F WCI  -8
THIEF RVR FALL LGT SNOW   5   0  79 N14       30.02F WCI -12
CROOKSTON      LGT SNOW   5   1  85 N22       30.08R WCI -16
FOSSTON        LGT SNOW   3  -2  78 N14       29.99F WCI -15
DETROIT LAKES  CLOUDY     9   3  78 N15       29.98R HAZE    WCI  -8
MOORHEAD       MIX PCPN   5   0  78 N15       30.06R WCI -13
PARK RAPIDS    LGT SNOW   7   1  76 N10       29.92S WCI  -8
MAHNOMEN       LGT SNOW   5   0  79 N14       29.98F WCI -12
$$
MNZ006-009>011-018-025>026-201700-
   North Central Minnesota

CITY           SKY/WX    TMP DP  RH WIND       PRES   REMARKS
BAUDETTE       LGT SNOW   4  -1  80 NW12      29.97S VSB 3/4 WCI -12
FLAG ISLAND    CLOUDY     3  -2  78 NW12      30.00F HAZE    WCI -13
INTL FALLS     SNOW       5   0  79 N9        29.93F VSB 1/2 WCI  -9
WASKISH        LGT SNOW   7   1  78 NW9       29.96R WCI  -7
BIG FORK       LGT SNOW   7   0  72 N3        29.92R
LONGVILLE      LGT SNOW   7   1  78 N5        29.93R WCI  -2
GRAND RAPIDS   LGT SNOW   5   1  83 NW9       29.92F FOG     WCI  -9
CRANE LAKE     LGT SNOW   3   0  85 CALM      29.94S
ORR            LGT SNOW   3  -2  78 CALM      29.89R
COOK           LGT SNOW   3   0  85 NW3       29.91R
WALKER         LGT SNOW   6   0  75 NW8       29.95R WCI  -7
$$
MNZ012-019>021-037-201700-
   Northeast Minnesota

CITY           SKY/WX    TMP DP  RH WIND       PRES   REMARKS
DULUTH         FRZ DRZL   8   4  83 NW12      29.85R WCI  -7
ELY            FLURRIES   1  -2  85 N3        29.87R
HIBBING        LGT SNOW   4   0  83 NW10      29.89R FOG     WCI -11
EVELETH        FLURRIES N/A N/A N/A CALM      29.88S
DULUTH HARBOR  LGT SNOW  16  10  79 NW7       29.92R WCI   6
TWO HARBORS    CLOUDY    16   9  73 NW7       29.82S HAZE    WCI   6
GRAND MARAIS     N/A     13   5  70 N8G20     29.85F WCI   2
G MARAIS ARPRT LGT SNOW   3  -2  78 N12       29.76F WCI -13
$$
MNZ029>031-032-039>041-046>048-054>057-064-201700-
   West Central Minnesota

CITY           SKY/WX    TMP DP  RH WIND       PRES   REMARKS
FERGUS FALLS   PTSUNNY    7   0  72 N20       30.00F HAZE    WCI -13
WHEATON        CLOUDY     7   0  72 NW18G24   30.06R HAZE    WCI -12
MORRIS         CLOUDY     9   1  72 NW18G28   29.99R HAZE    WCI -10
ALEXANDRIA     LGT SNOW  10   4  76 NW9       29.92S WCI  -3
ELBOW LAKE     LGT SNOW   6   2  81 NW16      29.98F WCI -12
WADENA         LGT SNOW   9   3  78 NW10      29.94F WCI  -6
GLENWOOD       CLOUDY    10   7  85 NW10G16   29.94S WCI  -3
APPLETON       CLOUDY     9   3  78 NW16G24   30.02R HAZE    WCI  -9
BENSON         CLOUDY     9   3  78 N21       30.00R WCI -11
ORTONVILLE     LGT SNOW   9   1  72 NW15G23   30.04R WCI  -8
MADISON        CLOUDY    10   5  79 NW18      30.05R WCI  -8
WILLMAR        CLOUDY    12   7  79 NW16      29.98R WCI  -4
$$
MNZ033>034-036-042>043-049>051-058-059-201700-
   Central Minnesota

CITY           SKY/WX    TMP DP  RH WIND       PRES   REMARKS
ST CLOUD       CLOUDY    13   7  77 N8        29.90S WCI   2
SAUK CENTRE    FLURRIES  10   3  72 NW10      29.94R WCI  -3
PAYNESVILLE    FLURRIES  13   8  81 NW9       29.95R WCI   0
AITKIN         FLURRIES   9   1  72 N8        29.90S WCI  -4
PINE RIVER     LGT SNOW   7   1  78 N10       29.93F WCI  -8
BRAINERD       LGT SNOW  10   2  69 N9        29.91S WCI  -3
STAPLES        LGT SNOW   9   3  78 NW9       29.93S WCI  -5
LONG PRAIRIE   LGT SNOW  10   5  79 NW9       29.90S WCI  -2
LITTLE FALLS   FLURRIES  12   1  62 N6        29.92S WCI   3
LITCHFIELD     CLOUDY    14  10  85 NW13      29.93R WCI   0
BUFFALO        CLOUDY    15  10  81 NW8       29.89F WCI   4
MAPLE LAKE     CLOUDY    16  12  84 NW10      29.89F WCI   3
HUTCHINSON     CLOUDY    16  10  80 W15       29.93R WCI   1
$$
MNZ037-044-045-052-053-201700-
   East Central Minnesota

CITY           SKY/WX    TMP DP  RH WIND       PRES   REMARKS
PRINCETON      CLOUDY    16  10  79 NW7       29.91F WCI   6
MORA           FLURRIES  12   9  85 NW10      29.92R WCI  -1
CAMBRIDGE      FLURRIES  16   9  73 NW8       29.89F WCI   5
RUSH CITY      LGT SNOW  14  11  90 NW6       29.89S WCI   5
MOOSE LAKE     LGT SNOW  10   7  85 N7        29.89R WCI   0
HINCKLEY       LGT SNOW  12  10  92 N7        29.91R WCI   2
CLOQUET        LGT SNOW   9   3  78 NW9       29.88R WCI  -5
MCGREGOR       CLOUDY    10   5  79 N10G16    29.89F WCI  -3
$$
MNZ071>073-080-081-089-090-097-098-201700-
   Southwest Minnesota

CITY           SKY/WX    TMP DP  RH WIND       PRES   REMARKS
MONTEVIDEO     CLOUDY    10   5  79 N17       30.03R WCI  -7
GRANITE FALLS  CLOUDY    11   6  79 NW18      30.04R WCI  -7
CANBY          CLOUDY     8   3  79 W17G24    30.06R WCI -10
MARSHALL       CLOUDY     8   3  80 NW23      30.02R WCI -13
REDWOOD FALLS  FLURRIES  13   8  81 NW17      29.99R WCI  -4
OLIVIA         LGT SNOW  16  10  79 NW15      29.97R WCI   1
PIPESTONE      CLOUDY     7   1  78 NW15G21   29.99R WCI -11
WINDOM         LGT SNOW  10  -2  56 CALM      29.96R
WORTHINGTON    CLOUDY    12   6  77 NW23      29.97F WCI  -7
JACKSON        FLURRIES  12   9  85 W15       29.97R WCI  -4
TRACY          CLOUDY     8   5  86 NW17      30.01R FOG     WCI -10
SLAYTON        CLOUDY     9   4  83 NW18      29.99S WCI -10
$$
MNZ065>067-074>077-082>085-091>093-201700-
   South Central Minnesota

CITY           SKY/WX    TMP DP  RH WIND       PRES   REMARKS
MANKATO        CLOUDY    16  13  88 NW12      29.93R WCI   3
NEW ULM        FLURRIES  14   9  79 NW14      29.96R WCI  -1
ST JAMES       FLURRIES  14  10  85 W15       29.96R WCI  -1
FAIRMONT       FLURRIES  14  10  84 NW17      29.98R WCI  -3
GLENCOE        CLOUDY    17  12  82 W12       29.92S WCI   4
FARIBAULT      CLOUDY    19  16  86 W7        29.89F FOG     WCI  10
OWATONNA       CLOUDY    19  18  93 CALM      29.88S FOG
WASECA         CLOUDY    18  14  86 W6        29.91S WCI   9
ALBERT LEA     CLOUDY    18  16  93 NW6       29.91R WCI   9
$$
MNZ078>079-086>088-094>096-201700-
   Southeast Minnesota

CITY           SKY/WX    TMP DP  RH WIND       PRES   REMARKS
ROCHESTER      CLOUDY    21  19  92 W14       29.85R WCI   8
RED WING       CLOUDY    21  18  86 W8        29.88R FOG     WCI  12
STANTON        CLOUDY    22  19  88 W8        29.88S FOG     WCI  12
DODGE CENTER   CLOUDY    19  18  93 W7        29.86S FOG     WCI  10
WINONA         CLOUDY    27  27 100 W6        29.86R WCI  20
AUSTIN         CLOUDY    21  18  86 W8        29.88R FOG     WCI  12
PRESTON        CLOUDY    23  21  93 W6        29.85R WCI  16
$$
ABBREVIATIONS USED IN REMARKS
   TC - TEMPERATURES IN CELSIUS
  WCI - WIND CHILL INDEX
   HX - HEAT INDEX
  VSB - VISIBILITY
$$



USA.gov is the U.S. government's official web portal to all federal, state and local government web resources and services.